Bierset, Belgium

9:53 PM CEST on April 27, 2017 (GMT +0200)
Liege

Weather History for EBLG - September, 2012

Change the Weather History Date:

Wednesday, September 26, 2012

  Actual Average Record
Temperature  
Mean Temperature 54 °F -  
Max Temperature 57 °F 57 °F 75 °F (2011)
Min Temperature 51 °F 46 °F 41 °F (2008)
Degree Days  
Heating Degree Days 11    
Growing Degree Days 4 (Base 50)    
Moisture  
Dew Point 49 °F    
Average Humidity 82    
Maximum Humidity 94    
Minimum Humidity 67    
Precipitation  
Precipitation 0.00 in - - ()
Sea Level Pressure  
Sea Level Pressure 29.50 in    
Wind  
Wind Speed 11 mph ()    
Max Wind Speed 18 mph    
Max Gust Speed -    
Visibility 7.4 miles    
Events Rain    
Averages and records for this station are not official NWS values.
T = Trace of Precipitation, MM = Missing Value Source: Averaged Metar Reports

Daily Weather History Graph

Daily Weather History Graph

Search for Another Location

Airport or City:

Trip Planner

Search our weather history database for the weather conditions in past years. The results will help you decide how hot, cold, wet, or windy it might be!

Date:

Astronomy

Sep. 26, 2012 Rise Set
Actual Time 7:31 AM CEST 7:26 PM CEST
Civil Twilight 6:58 AM CEST 7:59 PM CEST
Nautical Twilight 6:20 AM CEST 8:37 PM CEST
Astronomical Twilight 5:40 AM CEST 9:17 PM CEST
Moon 5:33 PM CEST (9/26) 3:19 AM CEST (9/26)
Length of Visible Light 13h 00m
Length of Day
11h 55m
Waxing Gibbous, 86% of the Moon is Illuminated
Sep 26
Waxing Gibbous
Sep 30
Full
Oct 8
Last Quarter
Oct 15
New
Oct 22
First Quarter

Hourly Weather History & Observations

Time (CEST) Temp. Dew Point Humidity Pressure Visibility Wind Dir Wind Speed Gust Speed Precip Events Conditions
12:20 AM 55.4 °F 50.0 °F 82% 29.47 in - South 10.4 mph - N/A   Clear
12:50 AM 55.4 °F 50.0 °F 82% 29.44 in 6.2 mi SSE 10.4 mph - N/A Rain Light Rain
1:20 AM 53.6 °F 50.0 °F 88% 29.44 in 6.2 mi SSE 9.2 mph - N/A Rain Light Rain
1:50 AM 53.6 °F 50.0 °F 88% 29.44 in 6.2 mi SSE 8.1 mph - N/A Rain Light Rain
2:00 AM 54 °F 50 °F 83% 29.46 in 12 mi SSE 8.9 mph - - Rain Light Rain
2:20 AM 53.6 °F 50.0 °F 88% 29.44 in 6.2 mi SSE 11.5 mph - N/A Rain Light Rain
2:50 AM 53.6 °F 50.0 °F 88% 29.44 in 6.2 mi SSE 11.5 mph - N/A Rain Light Rain
3:20 AM 53.6 °F 50.0 °F 88% 29.44 in 6.2 mi South 11.5 mph - N/A Rain Light Rain
3:50 AM 53.6 °F 50.0 °F 88% 29.44 in 6.2 mi South 12.7 mph - N/A Rain Light Rain
4:20 AM 53.6 °F 50.0 °F 88% 29.44 in 6.2 mi SSW 11.5 mph - N/A Rain Light Rain
4:50 AM 53.6 °F 50.0 °F 88% 29.44 in 5.0 mi South 8.1 mph - N/A Rain Light Rain
5:00 AM 53 °F 50 °F 87% 29.45 in 5 mi South 8.9 mph - - Rain Light Rain
5:20 AM 53.6 °F 50.0 °F 88% 29.44 in 6.2 mi South 10.4 mph - N/A Rain Light Rain
5:50 AM 53.6 °F 50.0 °F 88% 29.44 in 6.2 mi South 9.2 mph - N/A Rain Light Rain
6:20 AM 51.8 °F 50.0 °F 94% 29.42 in 6.2 mi South 8.1 mph - N/A Rain Light Rain
6:50 AM 51.8 °F 50.0 °F 94% 29.42 in 6.2 mi South 10.4 mph - N/A Rain Light Rain
7:20 AM 51.8 °F 50.0 °F 94% 29.44 in 6.2 mi South 9.2 mph - N/A   Scattered Clouds
7:50 AM 51.8 °F 50.0 °F 94% 29.44 in 6.2 mi South 9.2 mph - N/A   Partly Cloudy
8:00 AM 52 °F 49 °F 86% 29.47 in 31 mi South 8.9 mph - - Rain Light Rain
8:20 AM 51.8 °F 48.2 °F 88% 29.44 in 6.2 mi South 10.4 mph - N/A   Partly Cloudy
8:50 AM 53.6 °F 48.2 °F 82% 29.47 in 6.2 mi South 11.5 mph - N/A   Partly Cloudy
9:20 AM 53.6 °F 50.0 °F 88% 29.47 in 6.2 mi South 12.7 mph - N/A   Mostly Cloudy
9:50 AM 53.6 °F 50.0 °F 88% 29.47 in 6.2 mi South 12.7 mph - N/A   Scattered Clouds
10:20 AM 55.4 °F 50.0 °F 82% 29.47 in 6.2 mi South 13.8 mph - N/A   Scattered Clouds
10:50 AM 55.4 °F 50.0 °F 82% 29.50 in 6.2 mi South 16.1 mph - N/A   Mostly Cloudy
11:00 AM 55 °F 50 °F 76% 29.51 in 19 mi South 15.7 mph - -   Mostly Cloudy
11:20 AM 55.4 °F 50.0 °F 82% 29.50 in 6.2 mi SSW 15.0 mph - N/A   Mostly Cloudy
11:50 AM 57.2 °F 48.2 °F 72% 29.50 in 6.2 mi South 16.1 mph - N/A   Scattered Clouds
12:20 PM 57.2 °F 48.2 °F 72% 29.50 in 6.2 mi SSW 16.1 mph - N/A   Mostly Cloudy
12:50 PM 55.4 °F 50.0 °F 82% 29.50 in 6.2 mi South 18.4 mph - N/A   Mostly Cloudy
1:20 PM 57.2 °F 50.0 °F 77% 29.50 in 6.2 mi South 17.3 mph - N/A   Mostly Cloudy
1:50 PM 57.2 °F 50.0 °F 77% 29.53 in 6.2 mi SSW 13.8 mph - N/A   Mostly Cloudy
2:00 PM 57 °F 49 °F 67% 29.53 in 19 mi SSW 13.4 mph - -   Mostly Cloudy
2:20 PM 57.2 °F 50.0 °F 77% 29.53 in 6.2 mi South 16.1 mph - N/A   Mostly Cloudy
2:50 PM 57.2 °F 50.0 °F 77% 29.53 in 6.2 mi South 15.0 mph - N/A   Mostly Cloudy
3:20 PM 57.2 °F 50.0 °F 77% 29.53 in 6.2 mi South 16.1 mph - N/A   Mostly Cloudy
3:50 PM 55.4 °F 50.0 °F 82% 29.53 in 6.2 mi SSW 15.0 mph - N/A   Mostly Cloudy
4:20 PM 55.4 °F 50.0 °F 82% 29.53 in 6.2 mi SSW 13.8 mph - N/A   Mostly Cloudy
4:50 PM 55.4 °F 50.0 °F 82% 29.53 in 6.2 mi South 12.7 mph - N/A   Mostly Cloudy
5:00 PM 56 °F 49 °F 71% 29.55 in 19 mi South 11.2 mph - -   Partly Cloudy
5:20 PM 55.4 °F 48.2 °F 77% 29.56 in 6.2 mi South 13.8 mph - N/A   Mostly Cloudy
5:50 PM 55.4 °F 48.2 °F 77% 29.56 in 6.2 mi SSW 15.0 mph - N/A   Mostly Cloudy
6:20 PM 55.4 °F 48.2 °F 77% 29.53 in 6.2 mi South 13.8 mph - N/A   Scattered Clouds
6:50 PM 55.4 °F 48.2 °F 77% 29.56 in 6.2 mi South 15.0 mph - N/A   Partly Cloudy
7:20 PM 55.4 °F 48.2 °F 77% 29.56 in 6.2 mi South 16.1 mph - N/A   Partly Cloudy
7:50 PM 53.6 °F 48.2 °F 82% 29.56 in 6.2 mi South 12.7 mph - N/A   Partly Cloudy
8:00 PM 54 °F 48 °F 75% 29.57 in 19 mi South 13.4 mph - -   Partly Cloudy
8:20 PM 53.6 °F 48.2 °F 82% 29.56 in 6.2 mi South 12.7 mph - N/A   Partly Cloudy
8:50 PM 53.6 °F 48.2 °F 82% 29.56 in 6.2 mi South 10.4 mph - N/A   Partly Cloudy
9:20 PM 53.6 °F 48.2 °F 82% 29.56 in 6.2 mi South 16.1 mph - N/A   Partly Cloudy
9:50 PM 53.6 °F 48.2 °F 82% 29.56 in 6.2 mi South 16.1 mph - N/A   Partly Cloudy
10:20 PM 53.6 °F 48.2 °F 82% 29.56 in 6.2 mi South 16.1 mph - N/A   Partly Cloudy
10:50 PM 53.6 °F 48.2 °F 82% 29.56 in 6.2 mi South 17.3 mph - N/A   Partly Cloudy
11:00 PM 54 °F 48 °F 74% 29.59 in 19 mi South 17.9 mph - -   Scattered Clouds
11:20 PM 53.6 °F 48.2 °F 82% 29.59 in 6.2 mi South 13.8 mph - N/A   Partly Cloudy
11:50 PM 53.6 °F 48.2 °F 82% 29.59 in 6.2 mi South 12.7 mph - N/A   Scattered Clouds